Location: Eaton Estates
(41.3089°N, 82.0057°W)
Time: 17:05:13
(UTC+00:00)

Cosmos 1900 - Pass Details

Date: 17 June 2021
Orbit: 691 x 730 km, 66.1° (Epoch: 01 August)

Event Time Altitude Azimuth Distance (km) Brightness Sun altitude
Rises 03:26:46 0° 331° (NNW) 3,086 9.3 -19.4°
Reaches altitude 10° 03:29:08 10° 334° (NNW) 2,161 8.1 -19.6°
Maximum altitude 03:34:01 68° 58° (ENE) 745 4.4 -20.0°
Enters shadow 03:35:32 43° 125° (SE) 976 4.6 -20.2°
